Regional Weather Roundup
Issued by NWS Little Rock, AR

Home | Current Version | Previous Version | Text Only | Print | Product List | Glossary On
Versions: 1 2 3 4 5 6 7 8 9 10 11 12 13 14 15 16 17 18 19 20 21 22 23 24 25 26 27 28 29 30 31 32 33 34 35 36 37 38 39 40 41 42 43 44 45 46 47 48 49 50
000
ASUS44 KLZK 281005
RWRLZK

WEATHER ROUNDUP FOR ARKANSAS
NATIONAL WEATHER SERVICE LITTLE ROCK AR
500 AM CDT MON JUL 28 2014

NOTE: "FAIR" INDICATES FEW OR NO CLOUDS BELOW 12,000 FEET WITH NO
SIGNIFICANT WEATHER AND/OR OBSTRUCTIONS TO VISIBILITY.

ARZ001-003-010-029-281100-
NORTHWEST ARKANSAS

CITY           SKY/WX    TMP DP  RH WIND       PRES   REMARKS
FAYETTEVILLE   CLEAR     61  61 100 CALM      30.15R
FORT SMITH     PTCLDY    75  65  70 N3        30.09R
HARRISON       CLEAR     65  59  81 NW5       30.14R
BENTONVILLE    CLEAR     66  57  72 NE3       30.16R
ROGERS         CLEAR     65  61  87 CALM      30.17R
SILOAM SPGS    CLEAR     66  55  68 NE5       30.16R
HIGHFILL       CLEAR     66  60  81 N3        30.15R
$$

ARZ004-005-016-281100-
NORTH CENTRAL ARKANSAS

CITY           SKY/WX    TMP DP  RH WIND       PRES   REMARKS
BATESVILLE     CLEAR     70  63  78 NW3       30.06R
FLIPPIN        CLEAR     66  59  77 NW3       30.11R
MTN HOME       CLEAR     62  59  90 CALM      30.10R
$$

ARZ040-041-281100-
WEST CENTRAL ARKANSAS

CITY           SKY/WX    TMP DP  RH WIND       PRES   REMARKS
MENA           PTCLDY    73  70  88 CALM      30.10S
MOUNT IDA      PTCLDY    73  72  96 CALM      30.07R FOG
$$

ARZ009-017-025-026-028-281100-
NORTHEAST ARKANSAS

CITY           SKY/WX    TMP DP  RH WIND       PRES   REMARKS
CORNING        FAIR      66  63  88 N5        30.05R
JONESBORO      CLEAR     70  62  76 N3        30.03R
NEWPORT        CLEAR     69  64  84 N13       30.05R
WALNUT RIDGE   CLEAR     66  61  82 NW6       30.03R
BLYTHEVILLE    CLEAR     65  63  93 N6        30.02R
$$

ARZ022-023-033-042-044-281100-
CENTRAL ARKANSAS

CITY           SKY/WX    TMP DP  RH WIND       PRES   REMARKS
LITTLE ROCK    PTCLDY    76  63  64 NW7       30.05R
N LITTLE ROCK    N/A     76  66  71 N6        30.05R
JACKSONVILLE   MOCLDY    72  67  84 NW3       30.06R
SEARCY         CLEAR     74  64  70 NW3       30.06R
HOT SPRINGS    PTCLDY    76  71  85 CALM      30.07R
RUSSELLVILLE   CLEAR     70  67  90 CALM      30.07R
CLINTON        FAIR      66  64  94 CALM      30.08R FOG
$$

ARZ036-281100-
EAST ARKANSAS

CITY           SKY/WX    TMP DP  RH WIND       PRES   REMARKS
WEST MEMPHIS   CLEAR     72  66  81 N6        30.01R
$$

ARZ050-053-066-070-073-281100-
SOUTHWEST ARKANSAS

CITY           SKY/WX    TMP DP  RH WIND       PRES   REMARKS
ARKADELPHIA    FAIR      78  77  97 CALM      30.05R
CAMDEN         MOCLDY    79  73  83 CALM      30.02S
TEXARKANA      PTCLDY    79  75  87 N6        30.05R
EL DORADO      MOCLDY    79  74  84 NW8       30.01F
DE QUEEN       MOCLDY    75  74  96 W6        30.04R
$$

ARZ056-057-069-281100-
SOUTHEAST ARKANSAS

CITY           SKY/WX    TMP DP  RH WIND       PRES   REMARKS
PINE BLUFF     PTCLDY    78  67  68 N12       30.02R
STUTTGART      CLEAR     73  66  78 N8        30.04R
MONTICELLO     CLOUDY    81  72  74 CALM      30.00S HX  85

$$




USA.gov is the U.S. government's official web portal to all federal, state and local government web resources and services.